Date String (YYYY-MM-DD hh:mm:ss) UTC,Instrument flags,absolute air pressure of the measurement (hPa),sample flow rate (lpm),inlet stack bypass flow (lpm),air temperature of the measurement (°C),ambient temperature measured by the external sensor (°C),aerosol sample conditioner tube jacket temperature (°C),OPC LED temperature (°C),internal box temperature (°C),relative humidity of the measurement (%),span deviation,mass concentration of particles derived from Lorenz-Mie calculation of OPC scattering (μg/m³),mass concentration of particles derived from Lorenz-Mie calculation of OPC scattering (μg/m³),mass concentration of particles derived from Lorenz-Mie calculation of OPC scattering (μg/m³)
DateTimeUTC,F1_M11,P_M11,Q1_M11,Q2_M11,T1_M11,T2_M11,T3_M11,T4_M11,T5_M11,U1_M11,ZSPAN_M11,X0_M11,X2_M11,X1_M11
2023-08-22 06:00:00,SystemResetWarning,0833.8,5.00,000.00,027.7,025.6,000.0,036.2,029.4,18.6,0001.8,0014.48,0007.03,0005.87
2023-08-22 06:01:00,SystemResetWarning,0833.8,5.01,000.00,027.8,025.9,000.0,036.2,029.5,18.4,0001.7,0014.83,0007.07,0005.88
2023-08-22 06:02:00,SystemResetWarning,0833.7,5.00,000.00,027.8,026.2,000.0,036.2,029.6,18.4,0001.5,0014.70,0007.05,0005.88
2023-08-22 06:03:00,SystemResetWarning,0833.8,4.99,000.00,027.9,026.4,000.0,036.2,029.7,18.2,0001.3,0014.53,0007.01,0005.88
2023-08-22 06:04:00,SystemResetWarning,0833.8,5.00,000.00,027.9,026.6,000.0,036.3,029.7,18.3,0001.3,0014.27,0007.07,0005.91
2023-08-22 06:05:00,SystemResetWarning,0833.8,5.00,000.00,028.0,026.8,000.0,036.3,029.8,18.3,0001.4,0014.18,0007.05,0005.91
2023-08-22 06:06:00,SystemResetWarning,0833.9,5.00,000.00,028.0,026.9,000.0,036.3,029.9,18.3,0000.9,0014.10,0007.08,0005.92
2023-08-22 06:07:00,SystemResetWarning,0833.9,4.99,000.00,028.0,025.9,000.0,036.3,029.7,18.3,0001.1,0014.10,0007.12,0005.93
2023-08-22 06:08:00,SystemResetWarning,0833.8,5.02,000.00,028.0,024.7,000.0,036.2,029.5,18.2,0001.1,0013.97,0007.11,0005.96
2023-08-22 06:09:00,SystemResetWarning,0833.9,5.00,000.00,027.9,024.7,000.0,036.1,029.4,18.2,0001.7,0013.87,0007.11,0005.96
2023-08-22 06:10:00,SystemResetWarning,0833.9,5.00,000.00,027.9,025.0,000.0,036.2,029.4,18.3,0001.4,0013.81,0007.08,0005.95
2023-08-22 06:11:00,SystemResetWarning,0833.9,4.99,000.00,027.9,025.3,000.0,036.2,029.5,18.1,0001.1,0013.29,0007.03,0005.95
2023-08-22 06:12:00,SystemResetWarning,0833.9,5.00,000.00,027.9,025.7,000.0,036.3,029.5,18.5,0001.3,0012.81,0007.01,0005.97
2023-08-22 06:13:00,SystemResetWarning,0834.0,5.00,000.00,027.9,026.0,000.0,036.3,029.6,18.7,0001.4,0012.78,0007.03,0006.00
2023-08-22 06:14:00,SystemResetWarning,0834.0,4.99,000.00,027.9,026.2,000.0,036.3,029.7,18.7,0001.6,0012.80,0007.10,0006.03
2023-08-22 06:15:00,SystemResetWarning,0834.1,5.00,000.00,028.0,026.5,000.0,036.4,029.8,19.1,0001.5,0012.85,0007.13,0006.03
2023-08-22 06:16:00,SystemResetWarning,0834.1,5.00,000.00,028.1,026.7,000.0,036.4,029.9,19.2,0001.4,0013.05,0007.21,0006.06
2023-08-22 06:17:00,SystemResetWarning,0834.1,5.00,000.00,028.1,026.9,000.0,036.4,029.9,19.1,0001.7,0012.94,0007.21,0006.08
2023-08-22 06:18:00,SystemResetWarning,0834.1,4.99,000.00,028.1,026.2,000.0,036.4,029.8,18.9,0001.9,0012.98,0007.25,0006.09
2023-08-22 06:19:00,SystemResetWarning,0834.1,4.99,000.00,028.1,024.2,000.0,036.3,029.5,19.1,0001.8,0013.12,0007.29,0006.10
2023-08-22 06:20:00,SystemResetWarning,0834.1,5.01,000.00,027.9,023.6,000.0,036.2,029.3,19.0,0001.2,0013.10,0007.36,0006.12
2023-08-22 06:21:00,SystemResetWarning,0834.1,5.01,000.00,027.9,023.9,000.0,036.2,029.2,18.9,0001.6,0013.08,0007.44,0006.16
2023-08-22 06:22:00,SystemResetWarning,0834.1,5.00,000.00,027.8,024.2,000.0,036.2,029.2,18.9,0001.7,0014.12,0007.52,0006.18
2023-08-22 06:23:00,SystemResetWarning,0834.1,4.99,000.00,027.8,024.7,000.0,036.2,029.3,18.9,0001.6,0014.19,0007.56,0006.19
2023-08-22 06:24:00,SystemResetWarning,0834.1,5.00,000.00,027.8,025.1,000.0,036.2,029.4,18.8,0001.6,0014.17,0007.58,0006.21
2023-08-22 06:25:00,SystemResetWarning,0834.1,5.00,000.00,027.8,025.5,000.0,036.3,029.5,18.6,0001.4,0014.41,0007.58,0006.22
2023-08-22 06:26:00,SystemResetWarning,0834.1,5.00,000.00,027.8,025.8,000.0,036.3,029.6,18.5,0001.1,0014.59,0007.56,0006.24
2023-08-22 06:27:00,SystemResetWarning,0834.1,5.00,000.00,027.9,026.1,000.0,036.3,029.6,18.4,0001.1,0014.68,0007.52,0006.24
2023-08-22 06:28:00,SystemResetWarning,0834.1,5.00,000.00,027.9,026.4,000.0,036.3,029.7,18.5,0001.1,0014.85,0007.55,0006.24
2023-08-22 06:29:00,SystemResetWarning,0834.1,5.00,000.00,028.0,026.6,000.0,036.3,029.8,18.5,0000.8,0015.10,0007.54,0006.25
2023-08-22 06:30:00,SystemResetWarning,0834.1,4.99,000.00,028.0,026.8,000.0,036.4,029.9,18.4,0000.8,0015.80,0007.57,0006.27
2023-08-22 06:31:00,SystemResetWarning,0834.1,5.00,000.00,028.1,026.9,000.0,036.4,029.9,18.1,0000.7,0016.07,0007.50,0006.26
2023-08-22 06:32:00,SystemResetWarning,0834.1,4.99,000.00,028.1,026.8,000.0,036.4,029.9,17.8,0000.6,0016.23,0007.47,0006.26
2023-08-22 06:33:00,SystemResetWarning,0834.1,4.99,000.00,028.1,025.0,000.0,036.3,029.6,17.9,0000.7,0016.29,0007.44,0006.27
2023-08-22 06:34:00,SystemResetWarning,0834.1,5.00,000.00,028.0,023.7,000.0,036.2,029.3,17.9,0000.8,0016.54,0007.48,0006.29
2023-08-22 06:35:00,SystemResetWarning,0834.1,5.01,000.00,027.9,023.8,000.0,036.1,029.1,17.9,0000.7,0016.70,0007.51,0006.30
2023-08-22 06:36:00,SystemResetWarning,0834.1,5.00,000.00,027.8,024.1,000.0,036.2,029.0,18.1,0000.9,0016.95,0007.51,0006.32
2023-08-22 06:37:00,SystemResetWarning,0834.1,5.00,000.00,027.8,024.6,000.0,036.2,029.2,18.2,0001.1,0016.50,0007.54,0006.32
2023-08-22 06:38:00,SystemResetWarning,0834.1,5.00,000.00,027.8,025.0,000.0,036.2,029.3,18.3,0001.2,0016.48,0007.55,0006.34
2023-08-22 06:39:00,SystemResetWarning,0834.1,5.00,000.00,027.8,025.4,000.0,036.2,029.4,18.3,0000.9,0016.68,0007.52,0006.34
2023-08-22 06:40:00,SystemResetWarning,0834.1,5.00,000.00,027.8,025.8,000.0,036.3,029.5,18.2,0001.0,0016.80,0007.52,0006.34
2023-08-22 06:41:00,SystemResetWarning,0834.1,5.00,000.00,027.9,026.0,000.0,036.3,029.6,18.1,0001.0,0016.07,0007.48,0006.33
2023-08-22 06:42:00,SystemResetWarning,0834.1,5.00,000.00,027.9,026.3,000.0,036.3,029.7,18.1,0001.4,0015.53,0007.50,0006.34
2023-08-22 06:43:00,SystemResetWarning,0834.2,5.01,000.00,027.9,026.5,000.0,036.3,029.7,18.3,0001.5,0015.95,0007.53,0006.36
2023-08-22 06:44:00,SystemResetWarning,0834.1,5.01,000.00,028.0,026.7,000.0,036.3,029.8,18.4,0001.7,0015.93,0007.53,0006.36
2023-08-22 06:45:00,SystemResetWarning,0834.1,4.98,000.00,028.1,026.9,000.0,036.4,029.9,18.4,0001.6,0015.45,0007.56,0006.37
2023-08-22 06:46:00,SystemResetWarning,0834.1,5.00,000.00,028.1,027.0,000.0,036.4,029.9,18.4,0001.3,0015.22,0007.55,0006.38
2023-08-22 06:47:00,SystemResetWarning,0834.1,5.00,000.00,028.1,025.8,000.0,036.3,029.7,18.2,0001.3,0015.10,0007.53,0006.37
2023-08-22 06:48:00,SystemResetWarning,0834.1,5.00,000.00,028.0,023.9,000.0,036.2,029.4,18.1,0001.4,0014.72,0007.49,0006.35
2023-08-22 06:49:00,SystemResetWarning,0834.1,5.00,000.00,027.9,023.6,000.0,036.2,029.3,18.2,0001.6,0014.66,0007.49,0006.34
2023-08-22 06:50:00,SystemResetWarning,0834.0,5.01,000.00,027.8,023.9,000.0,036.2,029.1,18.2,0001.8,0014.41,0007.50,0006.36
2023-08-22 06:51:00,SystemResetWarning,0834.0,5.00,000.00,027.8,024.3,000.0,036.2,029.2,18.5,0001.9,0014.68,0007.52,0006.38
2023-08-22 06:52:00,SystemResetWarning,0834.0,5.00,000.00,027.8,024.8,000.0,036.2,029.3,18.8,0001.7,0015.06,0007.56,0006.39
2023-08-22 06:53:00,SystemResetWarning,0834.0,5.00,000.00,027.8,025.2,000.0,036.2,029.4,19.0,0001.4,0015.16,0007.60,0006.39
2023-08-22 06:54:00,SystemResetWarning,0834.0,4.99,000.00,027.8,025.6,000.0,036.3,029.5,18.7,0001.7,0015.18,0007.61,0006.39
2023-08-22 06:55:00,SystemResetWarning,0834.0,5.00,000.00,027.8,025.9,000.0,036.3,029.5,18.6,0001.4,0014.68,0007.62,0006.37
2023-08-22 06:56:00,SystemResetWarning,0834.0,5.00,000.00,027.9,026.2,000.0,036.3,029.6,18.6,0001.4,0014.54,0007.56,0006.34
2023-08-22 06:57:00,SystemResetWarning,0834.0,5.01,000.00,027.9,026.4,000.0,036.3,029.7,18.6,0001.6,0014.55,0007.54,0006.33
2023-08-22 06:58:00,SystemResetWarning,0834.0,4.99,000.00,027.9,026.6,000.0,036.3,029.7,18.7,0001.3,0014.50,0007.56,0006.33
2023-08-22 06:59:00,SystemResetWarning,0834.0,4.99,000.00,028.0,026.7,000.0,036.4,029.8,18.7,0001.3,0014.42,0007.53,0006.32
